| time (UTC) | temp F | wind direction | speed MPH | gust MPH | rain 1hr in | rain 24hr in | rain mn in | humidity % | barometer mb |
| 20260507093057 | 56 | 10 | 5.0 | 8.0 | 0.00 | 0.05 | 0.00 | 79 | 1019.7 |
| 20260507091557 | 56 | 22 | 3.0 | 8.0 | 0.00 | 0.05 | 0.00 | 79 | 1019.5 |
| 20260507090113 | 56 | 28 | 4.0 | 10.0 | 0.00 | 0.05 | 0.00 | 78 | 1019.6 |
| 20260507084601 | 56 | 21 | 4.0 | 7.0 | 0.00 | 0.05 | 0.00 | 78 | 1019.2 |
| 20260507083100 | 56 | 348 | 2.0 | 4.0 | 0.00 | 0.05 | 0.00 | 78 | 1019.3 |
| 20260507081557 | 56 | 0 | 1.0 | 5.0 | 0.00 | 0.05 | 0.00 | 78 | 1019.2 |
| 20260507080053 | 56 | 9 | 2.0 | 6.0 | 0.00 | 0.05 | 0.00 | 77 | 1018.5 |
| 20260507074558 | 55 | 18 | 4.0 | 7.0 | 0.00 | 0.05 | 0.00 | 77 | 1018.2 |
| 20260507073057 | 55 | 18 | 3.0 | 4.0 | 0.00 | 0.05 | 0.00 | 77 | 1018.1 |
| 20260507071551 | 55 | 1 | 5.0 | 7.0 | 0.00 | 0.05 | 0.00 | 76 | 1017.6 |
| 20260507070058 | 54 | 11 | 2.0 | 4.0 | 0.00 | 0.05 | 0.00 | 76 | 1017.8 |
| 20260507064608 | 54 | 350 | 2.0 | 3.0 | 0.00 | 0.05 | 0.00 | 76 | 1017.7 |
| 20260507063057 | 54 | 0 | 0.0 | 0.0 | 0.00 | 0.05 | 0.00 | 76 | 1017.7 |
| 20260507061556 | 55 | 0 | 0.0 | 0.0 | 0.00 | 0.05 | 0.00 | 76 | 1017.6 |
| 20260507060058 | 55 | 0 | 0.0 | 0.0 | 0.00 | 0.05 | 0.00 | 75 | 1017.5 |
| 20260507054603 | 55 | 0 | 0.0 | 0.0 | 0.00 | 0.05 | 0.00 | 75 | 1017.4 |
| 20260507053052 | 55 | 0 | 0.0 | 0.0 | 0.00 | 0.05 | 0.00 | 75 | 1017.5 |
| 20260507051555 | 55 | 0 | 0.0 | 0.0 | 0.00 | 0.05 | 0.00 | 75 | 1017.5 |
| 20260507050052 | 56 | 0 | 0.0 | 0.0 | 0.00 | 0.05 | 0.00 | 75 | 1017.2 |
| 20260507044552 | 56 | 0 | 0.0 | 0.0 | 0.00 | 0.05 | 0.05 | 75 | 1017.2 |
| 20260507043059 | 56 | 0 | 0.0 | 0.0 | 0.00 | 0.05 | 0.05 | 74 | 1017.4 |
| 20260507041603 | 57 | 0 | 0.0 | 0.0 | 0.00 | 0.05 | 0.05 | 74 | 1017.2 |
| 20260507040057 | 57 | 0 | 0.0 | 0.0 | 0.00 | 0.05 | 0.05 | 74 | 1016.8 |
| 20260507034555 | 57 | 0 | 0.0 | 0.0 | 0.00 | 0.05 | 0.05 | 74 | 1016.6 |
| 20260507033055 | 58 | 0 | 1.0 | 3.0 | 0.00 | 0.05 | 0.05 | 74 | 1016.5 |
| 20260507031550 | 58 | 103 | 1.0 | 4.0 | 0.00 | 0.05 | 0.05 | 74 | 1016.3 |
| 20260507030058 | 58 | 71 | 1.0 | 3.0 | 0.00 | 0.05 | 0.05 | 74 | 1016.0 |
| 20260507024552 | 59 | 86 | 2.0 | 6.0 | 0.00 | 0.05 | 0.05 | 74 | 1015.9 |
| 20260507023111 | 59 | 94 | 2.0 | 6.0 | 0.00 | 0.05 | 0.05 | 74 | 1015.5 |
| 20260507021556 | 60 | 94 | 1.0 | 4.0 | 0.00 | 0.05 | 0.05 | 74 | 1015.5 |
| 20260507020056 | 60 | 110 | 2.0 | 4.0 | 0.00 | 0.05 | 0.05 | 75 | 1015.2 |
| 20260507014607 | 61 | 114 | 1.0 | 4.0 | 0.00 | 0.05 | 0.05 | 75 | 1015.2 |
| 20260507013113 | 61 | 139 | 1.0 | 2.0 | 0.00 | 0.05 | 0.05 | 75 | 1015.2 |
| 20260507011600 | 63 | 117 | 2.0 | 4.0 | 0.00 | 0.05 | 0.05 | 75 | 1015.2 |
| 20260507010055 | 64 | 112 | 1.0 | 4.0 | 0.00 | 0.05 | 0.05 | 75 | 1014.8 |
| 20260507004553 | 65 | 69 | 3.0 | 6.0 | 0.00 | 0.05 | 0.05 | 76 | 1014.7 |
| 20260507003050 | 65 | 73 | 3.0 | 7.0 | 0.00 | 0.05 | 0.05 | 76 | 1014.7 |
| 20260507001612 | 66 | 36 | 3.0 | 5.0 | 0.00 | 0.05 | 0.05 | 76 | 1014.6 |
| 20260507000058 | 66 | 22 | 3.0 | 12.0 | 0.00 | 0.05 | 0.05 | 76 | 1014.4 |
| 20260506234553 | 66 | 111 | 4.0 | 8.0 | 0.00 | 0.05 | 0.05 | 76 | 1014.4 |
| 20260506233102 | 66 | 82 | 4.0 | 8.0 | 0.00 | 0.05 | 0.05 | 77 | 1014.3 |
| 20260506231554 | 66 | 65 | 4.0 | 6.0 | 0.00 | 0.05 | 0.05 | 77 | 1014.2 |
| 20260506230057 | 66 | 64 | 2.0 | 6.0 | 0.00 | 0.05 | 0.05 | 77 | 1014.1 |
| 20260506224552 | 65 | 336 | 4.0 | 8.0 | 0.00 | 0.05 | 0.05 | 77 | 1013.9 |
| 20260506223105 | 65 | 30 | 2.0 | 5.0 | 0.00 | 0.05 | 0.05 | 77 | 1014.0 |
| 20260506221603 | 65 | 63 | 1.0 | 6.0 | 0.00 | 0.05 | 0.05 | 77 | 1013.9 |
| 20260506220055 | 65 | 0 | 0.0 | 7.0 | 0.00 | 0.05 | 0.05 | 77 | 1014.0 |
| 20260506214604 | 65 | 65 | 3.0 | 6.0 | 0.00 | 0.05 | 0.05 | 77 | 1014.1 |
| 20260506213051 | 64 | 30 | 4.0 | 9.0 | 0.00 | 0.05 | 0.05 | 77 | 1014.2 |
| 20260506211555 | 64 | 36 | 3.0 | 8.0 | 0.00 | 0.05 | 0.05 | 77 | 1014.2 |
| 20260506210053 | 63 | 270 | 0.0 | 8.0 | 0.00 | 0.05 | 0.05 | 77 | 1014.4 |
| 20260506204553 | 62 | 25 | 2.0 | 6.0 | 0.00 | 0.05 | 0.05 | 77 | 1014.6 |
| 20260506203100 | 62 | 354 | 3.0 | 8.0 | 0.00 | 0.05 | 0.05 | 77 | 1015.1 |
| 20260506201551 | 61 | 18 | 4.0 | 7.0 | 0.00 | 0.05 | 0.05 | 76 | 1015.3 |
| 20260506200137 | 60 | 335 | 4.0 | 8.0 | 0.00 | 0.05 | 0.05 | 76 | 1015.2 |
| 20260506194600 | 59 | 6 | 5.0 | 9.0 | 0.00 | 0.05 | 0.05 | 76 | 1015.5 |
| 20260506193052 | 59 | 314 | 3.0 | 10.0 | 0.00 | 0.05 | 0.05 | 75 | 1015.3 |
| 20260506191557 | 58 | 6 | 7.0 | 11.0 | 0.00 | 0.05 | 0.05 | 75 | 1015.7 |
| 20260506190050 | 58 | 314 | 4.0 | 7.0 | 0.00 | 0.05 | 0.05 | 75 | 1016.1 |
| 20260506184555 | 57 | 19 | 4.0 | 11.0 | 0.00 | 0.05 | 0.05 | 74 | 1016.1 |
| 20260506183055 | 57 | 354 | 5.0 | 12.0 | 0.00 | 0.05 | 0.05 | 74 | 1016.4 |
| 20260506181559 | 56 | 83 | 6.0 | 13.0 | 0.00 | 0.05 | 0.05 | 73 | 1016.4 |
| 20260506180106 | 55 | 357 | 3.0 | 9.0 | 0.00 | 0.05 | 0.05 | 73 | 1016.6 |
| 20260506174604 | 55 | 25 | 5.0 | 14.0 | 0.00 | 0.05 | 0.05 | 73 | 1016.5 |
| 20260506173116 | 54 | 328 | 4.0 | 9.0 | 0.00 | 0.05 | 0.05 | 72 | 1016.5 |
| 20260506171602 | 54 | 340 | 4.0 | 9.0 | 0.01 | 0.05 | 0.05 | 72 | 1016.5 |
| 20260506170059 | 54 | 12 | 4.0 | 8.0 | 0.01 | 0.05 | 0.05 | 72 | 1016.3 |
| 20260506164559 | 54 | 20 | 5.0 | 11.0 | 0.01 | 0.05 | 0.05 | 71 | 1016.2 |
| 20260506163108 | 54 | 323 | 4.0 | 8.0 | 0.01 | 0.05 | 0.05 | 71 | 1016.1 |
| 20260506161600 | 54 | 319 | 4.0 | 10.0 | 0.00 | 0.04 | 0.04 | 71 | 1015.8 |
| 20260506160110 | 54 | 27 | 5.0 | 10.0 | 0.00 | 0.04 | 0.04 | 70 | 1015.8 |
| 20260506154558 | 53 | 6 | 7.0 | 12.0 | 0.00 | 0.04 | 0.04 | 70 | 1015.4 |
| 20260506153053 | 53 | 23 | 4.0 | 10.0 | 0.00 | 0.04 | 0.04 | 70 | 1014.8 |
| 20260506151555 | 53 | 11 | 6.0 | 13.0 | 0.00 | 0.04 | 0.04 | 69 | 1015.0 |
| 20260506144556 | 53 | 44 | 3.0 | 8.0 | 0.03 | 0.04 | 0.04 | 69 | 1014.5 |
| 20260506143056 | 53 | 32 | 2.0 | 12.0 | 0.04 | 0.04 | 0.04 | 68 | 1014.3 |
| 20260506141555 | 52 | 305 | 1.0 | 12.0 | 0.04 | 0.04 | 0.04 | 68 | 1014.4 |
| 20260506140054 | 52 | 273 | 4.0 | 18.0 | 0.04 | 0.04 | 0.04 | 68 | 1014.9 |
| 20260506134618 | 53 | 66 | 5.0 | 10.0 | 0.01 | 0.01 | 0.01 | 68 | 1014.5 |
| 20260506133056 | 54 | 60 | 3.0 | 12.0 | 0.00 | 0.00 | 0.00 | 67 | 1015.7 |
| 20260506131608 | 54 | 335 | 6.0 | 15.0 | 0.00 | 0.00 | 0.00 | 67 | 1015.6 |
| 20260506130055 | 54 | 300 | 7.0 | 16.0 | 0.00 | 0.00 | 0.00 | 67 | 1014.2 |
| 20260506124556 | 55 | 22 | 9.0 | 15.0 | 0.00 | 0.00 | 0.00 | 67 | 1014.1 |
| 20260506123055 | 55 | 314 | 3.0 | 17.0 | 0.00 | 0.00 | 0.00 | 66 | 1014.5 |
| 20260506121605 | 56 | 349 | 6.0 | 12.0 | 0.00 | 0.00 | 0.00 | 66 | 1013.1 |
| 20260506120054 | 56 | 343 | 6.0 | 10.0 | 0.00 | 0.00 | 0.00 | 65 | 1012.9 |
| 20260506114556 | 56 | 359 | 6.0 | 11.0 | 0.00 | 0.00 | 0.00 | 65 | 1012.5 |
| 20260506113054 | 56 | 8 | 8.0 | 11.0 | 0.00 | 0.00 | 0.00 | 65 | 1012.1 |
| 20260506111610 | 57 | 34 | 7.0 | 11.0 | 0.00 | 0.00 | 0.00 | 64 | 1011.7 |
| 20260506110055 | 57 | 4 | 6.0 | 11.0 | 0.00 | 0.00 | 0.00 | 64 | 1012.1 |
| 20260506104553 | 57 | 23 | 7.0 | 12.0 | 0.00 | 0.00 | 0.00 | 63 | 1012.0 |
| 20260506103101 | 58 | 34 | 6.0 | 10.0 | 0.00 | 0.00 | 0.00 | 63 | 1011.8 |
| 20260506101557 | 58 | 335 | 5.0 | 9.0 | 0.00 | 0.00 | 0.00 | 62 | 1011.9 |
| 20260506100101 | 58 | 20 | 6.0 | 11.0 | 0.00 | 0.00 | 0.00 | 62 | 1011.4 |
| 20260506094555 | 58 | 16 | 7.0 | 12.0 | 0.00 | 0.00 | 0.00 | 61 | 1011.1 |